Torna al catalogo

CZ-4B R/B

AttivoPO
NORAD 38039·ROCKET BODY·🇨🇳 China

Lanciato Dec 22, 2011 da Taiyuan Satellite Launch Center

Loading…

Prossimi Passaggi (prossime 24 ore)

TLE

AggiornatoSource: Space-Track

Epoca: Sep 14, 2026, 13:40 UTC

1 38039U 11079B   26257.57005635  .00003127  00000-0  13590-3 0  9998
2 38039  98.4564 106.9720 0122525  58.7931 302.5239 15.16635263803379

Traccia CZ-4B R/B in tempo reale con AllMySat

Download on the App Store